Location: Étouvelles
(49.5207°N, 3.5808°E)
Time: 15:35:35
(UTC+00:00)

IRIDIUM 104 - Pass Details

Date: 03 February 2023
Orbit: 776 x 779 km, 86.4° (Epoch: 26 March)

Event Time Altitude Azimuth Distance (km) Brightness Sun altitude
Rises 18:25:05 0° 357° (N) 3,278 7.5 -16.5°
Reaches altitude 10° 18:27:27 10° 359° (N) 2,345 6.8 -16.9°
Maximum altitude 18:32:42 76° 85° (E) 809 4.2 -17.8°
Drops below altitude 10° 18:37:55 10° 171° (S) 2,326 6.7 -18.6°
Sets 18:40:15 0° 173° (S) 3,248 7.5 -19.0°
